WXM80 ListenWXM80 Stop

You find our weather info also at:

UK Metoffice

WeatherCloud

Weather Underground

Northeastern Weather Network

AWEKAS

Citizen Weather Observer Program (CWOP)

HAMweather, WeatherForYou, PWS Weather


Weather Underground History page Text

Daily Summary for January 24, 2017 Units:  English    Metric   Both
« Previous Day
Next Day »
Daily Weekly Monthly Yearly Custom
  High: Low: Average:
Temperature: 39.0 °F 37.4 °F 38.1 °F
Dew Point: 37.7 °F 36.0 °F 36.9 °F
Humidity: 97 % 91 % 96 %
Wind Speed: 18.9 mph 2.1 mph 8.4 mph
Wind Gust: 32.0 mph - -
Wind:- - SSE
Pressure: 29.44 in 29.24 in -
Precipitation: 0.00 in    
Historical Graphs
 
 
Tabular Data for January 24, 2017
Time Temperature Dew Point Pressure Wind Wind Speed Wind Gust Humidity Rainfall Rate (Hourly)
00:02 37.7 °F 36.7 °F 29.44 in ENE 16.8 mph 24.2 mph 96 % 0.11 in
00:07 37.8 °F 36.8 °F 29.44 in ENE 18.3 mph 24.2 mph 96 % 0.11 in
00:12 37.8 °F 36.8 °F 29.43 in East 15.7 mph 23.0 mph 96 % 0.10 in
00:17 37.8 °F 36.8 °F 29.42 in East 17.7 mph 27.0 mph 96 % 0.10 in
00:22 37.8 °F 36.8 °F 29.43 in NE 15.7 mph 26.5 mph 96 % 0.09 in
00:27 37.8 °F 36.8 °F 29.43 in East 14.6 mph 23.0 mph 96 % 0.09 in
00:32 37.8 °F 36.8 °F 29.42 in NE 14.3 mph 25.3 mph 96 % 0.09 in
00:37 37.7 °F 36.7 °F 29.41 in ENE 15.1 mph 24.2 mph 96 % 0.09 in
00:42 37.8 °F 36.8 °F 29.41 in NE 14.8 mph 23.0 mph 96 % 0.09 in
00:47 37.7 °F 36.7 °F 29.40 in East 17.0 mph 25.3 mph 96 % 0.09 in
00:52 37.8 °F 36.8 °F 29.40 in NE 15.5 mph 19.6 mph 96 % 0.09 in
00:58 37.8 °F 36.8 °F 29.40 in East 14.1 mph 21.0 mph 96 % 0.09 in
01:03 37.8 °F 36.8 °F 29.40 in East 13.1 mph 25.3 mph 96 % 0.09 in
01:08 37.9 °F 36.9 °F 29.40 in NE 13.5 mph 23.0 mph 96 % 0.09 in
01:13 37.9 °F 36.9 °F 29.40 in NE 16.1 mph 19.6 mph 96 % 0.10 in
01:18 37.9 °F 36.9 °F 29.39 in NE 11.8 mph 18.4 mph 96 % 0.10 in
01:23 38.0 °F 37.0 °F 29.38 in NE 16.7 mph 24.2 mph 96 % 0.11 in
01:28 38.0 °F 37.0 °F 29.38 in ENE 13.4 mph 23.0 mph 96 % 0.11 in
01:33 38.0 °F 37.0 °F 29.38 in ENE 14.7 mph 26.5 mph 96 % 0.10 in
01:38 38.0 °F 37.0 °F 29.37 in NE 13.7 mph 19.6 mph 96 % 0.11 in
01:43 38.0 °F 37.0 °F 29.37 in NE 15.8 mph 23.0 mph 96 % 0.09 in
01:48 37.9 °F 36.9 °F 29.37 in NE 15.8 mph 24.2 mph 96 % 0.09 in
01:53 37.9 °F 36.9 °F 29.36 in East 17.3 mph 25.0 mph 96 % 0.08 in
01:58 37.8 °F 36.8 °F 29.36 in NE 11.5 mph 21.9 mph 96 % 0.07 in
02:03 37.8 °F 36.8 °F 29.36 in NE 14.6 mph 23.0 mph 96 % 0.07 in
02:08 37.7 °F 36.7 °F 29.35 in East 12.7 mph 19.6 mph 96 % 0.07 in
02:13 37.7 °F 36.7 °F 29.34 in ENE 13.8 mph 20.7 mph 96 % 0.07 in
02:18 37.6 °F 36.6 °F 29.35 in NE 11.1 mph 19.6 mph 96 % 0.06 in
02:23 37.5 °F 36.5 °F 29.35 in NE 13.2 mph 19.6 mph 96 % 0.06 in
02:29 37.5 °F 36.5 °F 29.35 in ENE 12.5 mph 19.6 mph 96 % 0.07 in
02:34 37.6 °F 36.6 °F 29.36 in ENE 14.4 mph 27.6 mph 96 % 0.06 in
02:39 37.6 °F 36.6 °F 29.36 in ENE 12.0 mph 23.0 mph 96 % 0.00 in
02:44 37.5 °F 36.5 °F 29.35 in ENE 15.0 mph 25.0 mph 96 % 0.00 in
02:49 37.6 °F 36.6 °F 29.34 in ENE 14.0 mph 24.0 mph 96 % 0.00 in
02:54 37.6 °F 36.6 °F 29.34 in ENE 15.0 mph 26.0 mph 96 % 0.00 in
02:59 37.6 °F 36.3 °F 29.34 in ENE 18.9 mph 26.5 mph 95 % 0.05 in
03:04 37.6 °F 36.3 °F 29.33 in ENE 16.0 mph 32.0 mph 95 % 0.00 in
03:09 37.5 °F 36.2 °F 29.33 in NE 12.0 mph 26.0 mph 95 % 0.00 in
03:14 37.5 °F 36.5 °F 29.33 in NE 14.0 mph 23.0 mph 96 % 0.00 in
03:19 37.4 °F 36.4 °F 29.33 in NE 14.1 mph 23.0 mph 96 % 0.03 in
03:24 37.4 °F 36.4 °F 29.33 in NE 12.0 mph 27.0 mph 96 % 0.00 in
03:29 37.4 °F 36.4 °F 29.33 in NE 13.0 mph 21.0 mph 96 % 0.00 in
03:34 37.4 °F 36.4 °F 29.32 in NE 16.0 mph 26.0 mph 96 % 0.00 in
03:39 37.4 °F 36.4 °F 29.32 in ENE 14.0 mph 25.0 mph 96 % 0.00 in
03:44 37.4 °F 36.4 °F 29.32 in ENE 14.8 mph 24.2 mph 96 % 0.01 in
03:49 37.4 °F 36.4 °F 29.32 in ENE 15.7 mph 23.0 mph 96 % 0.02 in
03:54 37.5 °F 36.5 °F 29.32 in NE 11.3 mph 24.2 mph 96 % 0.02 in
03:59 37.5 °F 36.5 °F 29.32 in NE 13.6 mph 25.3 mph 96 % 0.02 in
04:04 37.5 °F 36.5 °F 29.32 in NE 12.2 mph 17.3 mph 96 % 0.02 in
04:09 37.5 °F 36.5 °F 29.33 in ENE 12.1 mph 18.4 mph 96 % 0.02 in
04:14 37.5 °F 36.5 °F 29.33 in ENE 12.2 mph 19.6 mph 96 % 0.01 in
04:19 37.6 °F 36.8 °F 29.33 in NE 9.5 mph 16.0 mph 97 % 0.01 in
04:24 37.6 °F 36.8 °F 29.33 in NE 11.9 mph 17.3 mph 97 % 0.01 in
04:29 37.6 °F 36.8 °F 29.32 in ENE 10.0 mph 15.0 mph 97 % 0.01 in
04:34 37.6 °F 36.8 °F 29.32 in ENE 11.9 mph 19.0 mph 97 % 0.01 in
04:39 37.7 °F 36.9 °F 29.32 in NE 11.3 mph 19.6 mph 97 % 0.01 in
04:44 37.7 °F 36.9 °F 29.32 in ENE 9.2 mph 14.0 mph 97 % 0.00 in
04:49 37.6 °F 36.8 °F 29.32 in East 11.9 mph 21.9 mph 97 % 0.00 in
04:55 37.6 °F 36.8 °F 29.32 in NE 14.6 mph 18.4 mph 97 % 0.00 in
05:00 37.6 °F 36.8 °F 29.31 in East 12.1 mph 19.0 mph 97 % 0.00 in
05:05 37.6 °F 36.8 °F 29.31 in NE 16.6 mph 21.9 mph 97 % 0.00 in
05:10 37.6 °F 36.8 °F 29.31 in NE 11.0 mph 18.0 mph 97 % 0.00 in
05:15 37.6 °F 36.8 °F 29.32 in NE 8.3 mph 15.0 mph 97 % 0.00 in
05:20 37.6 °F 36.8 °F 29.31 in NNE 12.8 mph 19.6 mph 97 % 0.00 in
05:25 37.6 °F 36.8 °F 29.31 in NNE 10.7 mph 21.9 mph 97 % 0.00 in
05:30 37.7 °F 36.9 °F 29.32 in NE 8.2 mph 15.0 mph 97 % 0.00 in
05:35 37.7 °F 36.9 °F 29.32 in NNE 9.0 mph 12.7 mph 97 % 0.00 in
05:40 37.7 °F 36.9 °F 29.32 in NE 8.9 mph 15.0 mph 97 % 0.00 in
05:45 37.7 °F 36.9 °F 29.32 in NE 6.7 mph 17.0 mph 97 % 0.00 in
05:50 37.7 °F 36.9 °F 29.32 in NE 9.2 mph 13.8 mph 97 % 0.00 in
05:55 37.7 °F 36.9 °F 29.33 in NNE 7.5 mph 13.0 mph 97 % 0.00 in
06:00 37.7 °F 36.9 °F 29.33 in NNE 8.7 mph 15.0 mph 97 % 0.00 in
06:05 37.7 °F 36.9 °F 29.32 in ENE 8.0 mph 8.1 mph 97 % 0.00 in
06:10 37.7 °F 36.9 °F 29.32 in NNE 8.3 mph 10.4 mph 97 % 0.00 in
06:15 37.8 °F 37.0 °F 29.33 in NNE 6.6 mph 11.5 mph 97 % 0.00 in
06:21 37.7 °F 36.9 °F 29.32 in NNE 7.3 mph 11.5 mph 97 % 0.00 in
06:26 37.8 °F 37.0 °F 29.32 in ENE 6.7 mph 11.5 mph 97 % 0.00 in
06:31 37.8 °F 37.0 °F 29.32 in NE 8.0 mph 11.5 mph 97 % 0.00 in
06:36 37.8 °F 37.0 °F 29.32 in NNE 6.9 mph 13.8 mph 97 % 0.00 in
06:41 37.8 °F 37.0 °F 29.32 in NE 7.2 mph 11.5 mph 97 % 0.00 in
06:46 37.8 °F 37.0 °F 29.32 in NE 8.6 mph 18.4 mph 97 % 0.00 in
06:51 37.8 °F 37.0 °F 29.32 in NNE 7.9 mph 16.1 mph 97 % 0.00 in
06:56 37.8 °F 37.0 °F 29.33 in NE 8.3 mph 12.7 mph 97 % 0.00 in
07:01 37.8 °F 37.0 °F 29.32 in NNE 8.3 mph 11.5 mph 97 % 0.00 in
07:06 37.9 °F 37.1 °F 29.32 in NNE 9.0 mph 18.4 mph 97 % 0.00 in
07:11 37.9 °F 37.1 °F 29.32 in NNE 9.6 mph 17.3 mph 97 % 0.00 in
07:16 37.9 °F 37.1 °F 29.32 in NNE 8.7 mph 13.8 mph 97 % 0.00 in
07:21 37.9 °F 37.1 °F 29.32 in NNE 8.0 mph 12.0 mph 97 % 0.00 in
07:26 37.9 °F 37.1 °F 29.31 in NNE 7.5 mph 10.0 mph 97 % 0.00 in
07:31 38.0 °F 37.2 °F 29.32 in NNE 9.0 mph 11.5 mph 97 % 0.00 in
07:36 38.0 °F 37.2 °F 29.31 in NE 7.4 mph 15.0 mph 97 % 0.00 in
07:41 38.0 °F 37.2 °F 29.32 in NE 6.3 mph 12.7 mph 97 % 0.00 in
07:46 38.0 °F 37.2 °F 29.32 in ENE 7.1 mph 10.0 mph 97 % 0.00 in
07:51 38.0 °F 37.2 °F 29.32 in NE 9.3 mph 16.1 mph 97 % 0.00 in
07:57 38.0 °F 37.2 °F 29.32 in NE 7.2 mph 12.7 mph 97 % 0.00 in
08:02 38.0 °F 37.2 °F 29.31 in NE 7.3 mph 13.8 mph 97 % 0.00 in
08:07 38.0 °F 37.2 °F 29.32 in ENE 9.9 mph 16.1 mph 97 % 0.00 in
08:12 38.0 °F 37.2 °F 29.31 in NNE 6.4 mph 11.5 mph 97 % 0.00 in
08:17 38.0 °F 37.2 °F 29.31 in NNE 6.9 mph 11.5 mph 97 % 0.00 in
08:22 38.0 °F 37.2 °F 29.32 in NNE 8.7 mph 13.0 mph 97 % 0.00 in
08:27 38.0 °F 37.2 °F 29.32 in NNE 9.0 mph 16.1 mph 97 % 0.00 in
08:32 38.0 °F 37.2 °F 29.31 in NNE 11.0 mph 13.8 mph 97 % 0.00 in
08:37 37.9 °F 37.1 °F 29.32 in NE 6.0 mph 9.2 mph 97 % 0.00 in
08:42 38.0 °F 37.2 °F 29.32 in NNE 6.8 mph 11.0 mph 97 % 0.00 in
08:47 37.9 °F 37.1 °F 29.32 in NE 7.6 mph 13.8 mph 97 % 0.00 in
08:52 37.9 °F 37.1 °F 29.32 in NE 7.9 mph 13.8 mph 97 % 0.00 in
08:57 37.9 °F 37.1 °F 29.32 in North 12.5 mph 16.0 mph 97 % 0.00 in
09:02 37.8 °F 37.0 °F 29.32 in NE 9.1 mph 14.0 mph 97 % 0.00 in
09:07 37.8 °F 37.0 °F 29.32 in NNE 12.0 mph 18.4 mph 97 % 0.00 in
09:12 37.8 °F 37.0 °F 29.33 in NE 9.2 mph 13.8 mph 97 % 0.00 in
09:18 37.9 °F 37.1 °F 29.32 in NE 7.7 mph 11.5 mph 97 % 0.00 in
09:23 38.0 °F 37.2 °F 29.32 in NNE 9.2 mph 11.5 mph 97 % 0.00 in
09:28 38.1 °F 37.3 °F 29.32 in North 5.7 mph 17.3 mph 97 % 0.00 in
09:33 38.1 °F 37.3 °F 29.32 in NNE 10.4 mph 17.3 mph 97 % 0.00 in
09:38 38.2 °F 37.4 °F 29.31 in North 12.2 mph 15.0 mph 97 % 0.00 in
09:43 38.2 °F 37.4 °F 29.31 in NNE 8.8 mph 13.8 mph 97 % 0.00 in
09:48 38.3 °F 37.5 °F 29.32 in North 11.1 mph 19.6 mph 97 % 0.00 in
09:53 38.4 °F 37.6 °F 29.32 in NE 8.4 mph 13.8 mph 97 % 0.00 in
09:58 38.5 °F 37.7 °F 29.32 in NNE 12.0 mph 18.4 mph 97 % 0.00 in
10:03 38.4 °F 37.6 °F 29.32 in NNE 9.2 mph 17.3 mph 97 % 0.00 in
10:08 38.4 °F 37.4 °F 29.32 in NNE 10.6 mph 17.3 mph 96 % 0.00 in
10:13 38.4 °F 37.4 °F 29.31 in North 10.9 mph 17.3 mph 96 % 0.00 in
10:18 38.4 °F 37.4 °F 29.31 in NNE 11.5 mph 13.0 mph 96 % 0.00 in
10:23 38.5 °F 37.5 °F 29.31 in NNE 10.9 mph 19.6 mph 96 % 0.00 in
10:28 38.5 °F 37.5 °F 29.31 in NE 9.2 mph 12.0 mph 96 % 0.00 in
10:33 38.5 °F 37.5 °F 29.31 in NNE 9.9 mph 17.0 mph 96 % 0.00 in
10:38 38.5 °F 37.2 °F 29.31 in NE 9.5 mph 15.0 mph 95 % 0.00 in
10:43 38.5 °F 37.2 °F 29.30 in NNE 9.0 mph 13.8 mph 95 % 0.00 in
10:48 38.5 °F 37.2 °F 29.30 in NE 8.4 mph 13.8 mph 95 % 0.00 in
10:54 38.5 °F 37.2 °F 29.30 in NE 9.3 mph 19.6 mph 95 % 0.00 in
10:59 38.5 °F 37.2 °F 29.30 in NE 11.7 mph 15.0 mph 95 % 0.00 in
11:04 38.5 °F 37.2 °F 29.30 in NNE 10.0 mph 21.0 mph 95 % 0.00 in
11:09 38.5 °F 37.2 °F 29.29 in NNE 9.0 mph 20.0 mph 95 % 0.00 in
11:14 38.5 °F 37.2 °F 29.28 in NNE 9.0 mph 20.0 mph 95 % 0.00 in
11:19 38.5 °F 37.2 °F 29.28 in NNE 9.0 mph 17.0 mph 95 % 0.00 in
11:24 38.4 °F 37.1 °F 29.28 in NNE 12.0 mph 15.0 mph 95 % 0.00 in
11:29 38.4 °F 37.1 °F 29.28 in NNE 9.0 mph 15.0 mph 95 % 0.00 in
11:34 38.5 °F 37.2 °F 29.28 in NNE 8.9 mph 12.0 mph 95 % 0.01 in
11:39 38.6 °F 37.3 °F 29.28 in NNE 10.0 mph 17.0 mph 95 % 0.00 in
11:44 38.6 °F 37.3 °F 29.27 in NNE 10.0 mph 16.0 mph 95 % 0.00 in
11:49 38.6 °F 37.3 °F 29.27 in NNE 10.0 mph 17.0 mph 95 % 0.00 in
11:54 38.6 °F 37.3 °F 29.27 in NNE 9.0 mph 18.0 mph 95 % 0.00 in
11:59 38.7 °F 37.4 °F 29.26 in NE 12.4 mph 16.1 mph 95 % 0.01 in
12:04 38.7 °F 37.4 °F 29.26 in North 10.4 mph 14.0 mph 95 % 0.01 in
12:09 38.8 °F 37.5 °F 29.26 in North 7.0 mph 11.5 mph 95 % 0.01 in
12:14 38.8 °F 37.5 °F 29.26 in NNE 10.3 mph 16.1 mph 95 % 0.01 in
12:19 38.9 °F 37.6 °F 29.25 in NNE 9.5 mph 13.0 mph 95 % 0.00 in
12:24 38.9 °F 37.6 °F 29.26 in North 8.1 mph 11.5 mph 95 % 0.00 in
12:29 38.9 °F 37.6 °F 29.25 in NE 10.2 mph 15.0 mph 95 % 0.00 in
12:34 38.9 °F 37.6 °F 29.25 in North 7.4 mph 12.7 mph 95 % 0.00 in
12:39 39.0 °F 37.7 °F 29.26 in North 7.6 mph 12.0 mph 95 % 0.00 in
12:44 39.0 °F 37.7 °F 29.25 in North 8.1 mph 11.5 mph 95 % 0.00 in
12:49 39.0 °F 37.7 °F 29.25 in NNE 7.4 mph 12.7 mph 95 % 0.00 in
12:54 38.9 °F 37.6 °F 29.25 in NE 7.9 mph 11.5 mph 95 % 0.00 in
12:59 38.9 °F 37.6 °F 29.25 in North 8.2 mph 11.5 mph 95 % 0.00 in
13:04 38.8 °F 37.5 °F 29.25 in North 7.2 mph 11.5 mph 95 % 0.00 in
13:10 38.8 °F 37.5 °F 29.25 in NNE 7.2 mph 12.7 mph 95 % 0.00 in
13:15 38.8 °F 37.5 °F 29.25 in North 7.4 mph 11.0 mph 95 % 0.00 in
13:20 38.7 °F 37.4 °F 29.25 in NNE 9.3 mph 11.5 mph 95 % 0.00 in
13:25 38.6 °F 37.3 °F 29.25 in NNE 7.4 mph 11.5 mph 95 % 0.00 in
13:30 38.6 °F 37.3 °F 29.25 in North 5.0 mph 8.1 mph 95 % 0.00 in
13:35 38.6 °F 37.3 °F 29.25 in NNE 5.8 mph 10.4 mph 95 % 0.00 in
13:40 38.5 °F 37.2 °F 29.24 in NNW 6.6 mph 14.0 mph 95 % 0.00 in
13:45 38.5 °F 37.2 °F 29.25 in North 7.3 mph 12.7 mph 95 % 0.00 in
13:50 38.5 °F 37.5 °F 29.25 in North 7.2 mph 11.5 mph 96 % 0.00 in
13:55 38.6 °F 37.6 °F 29.25 in NE 7.8 mph 11.5 mph 96 % 0.00 in
14:00 38.5 °F 37.5 °F 29.25 in NNE 6.8 mph 11.5 mph 96 % 0.00 in
14:05 38.4 °F 37.4 °F 29.25 in NNE 7.9 mph 11.5 mph 96 % 0.00 in
14:10 38.4 °F 37.4 °F 29.25 in North 9.8 mph 12.7 mph 96 % 0.00 in
14:15 38.3 °F 37.3 °F 29.25 in NE 9.1 mph 12.7 mph 96 % 0.00 in
14:20 38.3 °F 37.3 °F 29.25 in NNW 6.1 mph 10.4 mph 96 % 0.00 in
14:25 38.2 °F 37.2 °F 29.25 in North 6.9 mph 10.0 mph 96 % 0.00 in
14:31 38.2 °F 37.2 °F 29.25 in NNE 5.6 mph 11.5 mph 96 % 0.00 in
14:36 38.2 °F 37.2 °F 29.25 in NNW 7.8 mph 12.0 mph 96 % 0.00 in
14:41 38.2 °F 37.2 °F 29.25 in NNW 6.5 mph 10.4 mph 96 % 0.00 in
14:46 38.2 °F 37.2 °F 29.26 in NNE 4.3 mph 10.4 mph 96 % 0.00 in
14:51 38.2 °F 37.2 °F 29.26 in North 5.5 mph 10.4 mph 96 % 0.00 in
14:56 38.2 °F 37.2 °F 29.26 in North 4.2 mph 12.7 mph 96 % 0.00 in
15:01 38.2 °F 37.2 °F 29.26 in North 7.0 mph 10.4 mph 96 % 0.00 in
15:06 38.2 °F 37.2 °F 29.26 in NW 3.8 mph 9.2 mph 96 % 0.00 in
15:11 38.2 °F 37.2 °F 29.26 in NNE 4.5 mph 9.2 mph 96 % 0.00 in
15:16 38.2 °F 37.2 °F 29.26 in North 5.2 mph 8.1 mph 96 % 0.00 in
15:21 38.1 °F 37.1 °F 29.26 in NW 4.7 mph 9.2 mph 96 % 0.00 in
15:26 38.1 °F 37.1 °F 29.26 in NNW 6.4 mph 7.0 mph 96 % 0.01 in
15:31 38.1 °F 37.1 °F 29.26 in North 2.8 mph 9.2 mph 96 % 0.01 in
15:36 38.1 °F 37.1 °F 29.26 in NNE 5.2 mph 11.5 mph 96 % 0.02 in
15:42 38.1 °F 37.1 °F 29.26 in North 6.7 mph 11.5 mph 96 % 0.02 in
15:47 38.2 °F 37.2 °F 29.27 in NNW 6.5 mph 9.0 mph 96 % 0.02 in
15:52 38.2 °F 37.2 °F 29.26 in NNE 6.7 mph 15.0 mph 96 % 0.03 in
15:57 38.2 °F 37.2 °F 29.27 in NNW 6.8 mph 13.8 mph 96 % 0.03 in
16:02 38.2 °F 37.2 °F 29.27 in NNE 4.8 mph 9.2 mph 96 % 0.03 in
16:07 38.2 °F 37.2 °F 29.28 in North 3.3 mph 10.4 mph 96 % 0.03 in
16:12 38.2 °F 37.2 °F 29.28 in NW 6.3 mph 12.7 mph 96 % 0.03 in
16:17 38.3 °F 37.3 °F 29.28 in NNW 4.9 mph 10.4 mph 96 % 0.03 in
16:22 38.3 °F 37.3 °F 29.29 in NNW 4.3 mph 8.1 mph 96 % 0.03 in
16:27 38.2 °F 37.2 °F 29.29 in NNW 4.3 mph 6.9 mph 96 % 0.03 in
16:32 38.2 °F 37.2 °F 29.29 in NNW 3.9 mph 9.2 mph 96 % 0.03 in
16:37 38.1 °F 37.1 °F 29.29 in NNW 5.4 mph 9.2 mph 96 % 0.03 in
16:42 38.0 °F 37.0 °F 29.29 in North 4.5 mph 8.1 mph 96 % 0.04 in
16:47 38.0 °F 37.0 °F 29.29 in North 3.5 mph 4.6 mph 96 % 0.04 in
16:52 37.9 °F 36.9 °F 29.29 in NNW 5.3 mph 11.5 mph 96 % 0.04 in
16:57 37.9 °F 36.9 °F 29.30 in NNW 4.9 mph 6.9 mph 96 % 0.04 in
17:02 37.8 °F 36.8 °F 29.29 in NNW 4.3 mph 6.9 mph 96 % 0.05 in
17:07 37.7 °F 36.7 °F 29.30 in NNW 3.6 mph 10.4 mph 96 % 0.05 in
17:12 37.7 °F 36.7 °F 29.30 in NNW 7.9 mph 12.7 mph 96 % 0.05 in
17:18 37.7 °F 36.7 °F 29.30 in NW 4.8 mph 7.0 mph 96 % 0.06 in
17:23 37.7 °F 36.7 °F 29.30 in NNW 5.3 mph 11.5 mph 96 % 0.06 in
17:28 37.7 °F 36.7 °F 29.31 in WNW 4.9 mph 11.5 mph 96 % 0.05 in
17:33 37.7 °F 36.7 °F 29.31 in NNW 7.2 mph 11.5 mph 96 % 0.05 in
17:38 37.7 °F 36.7 °F 29.32 in NNW 6.5 mph 11.5 mph 96 % 0.05 in
17:43 37.6 °F 36.6 °F 29.32 in NNW 3.8 mph 6.9 mph 96 % 0.04 in
17:48 37.6 °F 36.6 °F 29.32 in NW 5.2 mph 10.0 mph 96 % 0.04 in
17:53 37.6 °F 36.6 °F 29.32 in North 6.2 mph 10.0 mph 96 % 0.04 in
17:58 37.6 °F 36.6 °F 29.33 in NW 5.5 mph 11.5 mph 96 % 0.05 in
18:03 37.6 °F 36.6 °F 29.33 in NW 4.9 mph 10.4 mph 96 % 0.04 in
18:08 37.6 °F 36.6 °F 29.33 in NNW 3.2 mph 5.8 mph 96 % 0.04 in
18:13 37.6 °F 36.6 °F 29.33 in North 7.0 mph 11.5 mph 96 % 0.05 in
18:18 37.7 °F 36.7 °F 29.33 in NW 6.3 mph 11.5 mph 96 % 0.04 in
18:23 37.7 °F 36.7 °F 29.33 in NNW 5.3 mph 12.7 mph 96 % 0.04 in
18:28 37.8 °F 36.8 °F 29.33 in NNW 5.3 mph 10.4 mph 96 % 0.04 in
18:34 37.8 °F 36.8 °F 29.33 in NW 4.7 mph 11.5 mph 96 % 0.04 in
18:39 37.8 °F 36.8 °F 29.33 in NNW 5.6 mph 11.5 mph 96 % 0.04 in
18:44 37.9 °F 36.8 °F 29.34 in NW 5.0 mph 8.0 mph 96 % 0.00 in
18:49 37.9 °F 36.9 °F 29.34 in NW 5.0 mph 13.0 mph 96 % 0.00 in
18:54 37.9 °F 36.9 °F 29.34 in NNW 5.7 mph 10.0 mph 96 % 0.04 in
18:59 38.0 °F 37.0 °F 29.34 in NW 4.2 mph 7.0 mph 96 % 0.03 in
19:04 38.0 °F 37.0 °F 29.35 in NNW 3.9 mph 6.9 mph 96 % 0.04 in
19:09 38.0 °F 37.0 °F 29.35 in WNW 5.0 mph 8.1 mph 96 % 0.04 in
19:14 38.1 °F 37.1 °F 29.35 in WNW 3.7 mph 10.4 mph 96 % 0.03 in
19:19 38.1 °F 37.1 °F 29.35 in North 3.8 mph 8.1 mph 96 % 0.03 in
19:24 38.2 °F 37.2 °F 29.35 in NNW 2.5 mph 6.9 mph 96 % 0.03 in
19:29 38.2 °F 37.2 °F 29.35 in NW 3.5 mph 10.4 mph 96 % 0.02 in
19:34 38.1 °F 37.1 °F 29.35 in NW 5.2 mph 11.5 mph 96 % 0.02 in
19:39 38.1 °F 37.1 °F 29.35 in NNW 3.4 mph 8.1 mph 96 % 0.02 in
19:45 38.1 °F 37.1 °F 29.35 in WNW 2.8 mph 4.6 mph 96 % 0.01 in
19:49 38.1 °F 37.1 °F 29.35 in WNW 5.9 mph 9.2 mph 96 % 0.01 in
19:54 38.1 °F 37.1 °F 29.35 in NNW 4.0 mph 7.0 mph 96 % 0.01 in
20:00 38.0 °F 37.0 °F 29.35 in NNW 3.9 mph 10.4 mph 96 % 0.01 in
20:05 38.0 °F 37.0 °F 29.35 in NW 4.6 mph 8.1 mph 96 % 0.00 in
20:10 38.0 °F 36.7 °F 29.35 in NNW 5.7 mph 11.0 mph 95 % 0.00 in
20:15 38.0 °F 36.7 °F 29.34 in WNW 7.3 mph 15.0 mph 95 % 0.00 in
20:20 38.0 °F 36.7 °F 29.35 in NW 5.6 mph 11.5 mph 95 % 0.00 in
20:25 38.0 °F 36.7 °F 29.35 in NNW 5.2 mph 13.8 mph 95 % 0.00 in
20:30 38.1 °F 36.8 °F 29.35 in WNW 6.2 mph 11.5 mph 95 % 0.00 in
20:35 38.1 °F 36.8 °F 29.36 in NW 6.6 mph 13.8 mph 95 % 0.00 in
20:40 38.1 °F 36.5 °F 29.36 in NW 4.9 mph 11.5 mph 94 % 0.00 in
20:45 38.2 °F 36.6 °F 29.36 in West 5.0 mph 10.4 mph 94 % 0.00 in
20:50 38.2 °F 36.6 °F 29.36 in NW 6.6 mph 11.5 mph 94 % 0.00 in
20:55 38.2 °F 36.6 °F 29.37 in NNW 7.3 mph 11.5 mph 94 % 0.00 in
21:00 38.2 °F 36.4 °F 29.37 in NNW 6.1 mph 9.2 mph 93 % 0.00 in
21:05 38.3 °F 36.5 °F 29.37 in NW 3.8 mph 9.2 mph 93 % 0.00 in
21:10 38.3 °F 36.5 °F 29.37 in NNW 4.3 mph 12.7 mph 93 % 0.00 in
21:16 38.3 °F 36.5 °F 29.38 in North 7.6 mph 11.5 mph 93 % 0.00 in
21:21 38.4 °F 36.3 °F 29.38 in NNW 5.9 mph 9.2 mph 92 % 0.00 in
21:26 38.4 °F 36.3 °F 29.38 in NNW 6.7 mph 9.2 mph 92 % 0.00 in
21:31 38.4 °F 36.3 °F 29.38 in NW 3.7 mph 10.4 mph 92 % 0.00 in
21:37 38.5 °F 36.4 °F 29.38 in NW 6.6 mph 11.5 mph 92 % 0.00 in
21:42 38.5 °F 36.1 °F 29.38 in WNW 5.3 mph 10.4 mph 91 % 0.00 in
21:47 38.6 °F 36.2 °F 29.38 in NNW 5.0 mph 8.1 mph 91 % 0.00 in
21:52 38.6 °F 36.2 °F 29.38 in NW 4.3 mph 9.2 mph 91 % 0.00 in
21:57 38.7 °F 36.3 °F 29.37 in NW 3.6 mph 9.0 mph 91 % 0.00 in
22:02 38.8 °F 36.4 °F 29.37 in NNW 7.8 mph 11.5 mph 91 % 0.00 in
22:07 38.8 °F 36.4 °F 29.37 in West 2.9 mph 5.8 mph 91 % 0.00 in
22:12 38.8 °F 36.4 °F 29.37 in NW 8.8 mph 15.0 mph 91 % 0.00 in
22:17 38.8 °F 36.4 °F 29.37 in NNW 8.9 mph 13.8 mph 91 % 0.00 in
22:22 38.9 °F 36.5 °F 29.37 in NNW 4.7 mph 9.2 mph 91 % 0.00 in
22:27 38.9 °F 36.5 °F 29.38 in NW 6.9 mph 10.4 mph 91 % 0.00 in
22:32 38.9 °F 36.5 °F 29.38 in NW 7.7 mph 9.2 mph 91 % 0.00 in
22:37 38.9 °F 36.5 °F 29.37 in WNW 6.8 mph 11.5 mph 91 % 0.00 in
22:42 38.9 °F 36.5 °F 29.38 in WNW 7.2 mph 13.8 mph 91 % 0.00 in
22:48 38.9 °F 36.5 °F 29.38 in NW 5.5 mph 10.0 mph 91 % 0.00 in
22:53 38.9 °F 36.5 °F 29.38 in NNW 6.1 mph 13.8 mph 91 % 0.00 in
22:58 38.9 °F 36.5 °F 29.38 in NW 4.1 mph 11.5 mph 91 % 0.00 in
23:03 38.8 °F 36.4 °F 29.38 in WNW 6.6 mph 11.5 mph 91 % 0.00 in
23:08 38.8 °F 36.4 °F 29.39 in WNW 5.4 mph 11.5 mph 91 % 0.00 in
23:09 38.8 °F 36.4 °F 29.39 in WNW 3.3 mph 9.2 mph 91 % 0.00 in
23:14 38.8 °F 36.4 °F 29.39 in NW 4.8 mph 11.5 mph 91 % 0.00 in
23:19 38.7 °F 36.3 °F 29.39 in WNW 3.4 mph 11.5 mph 91 % 0.00 in
23:24 38.7 °F 36.6 °F 29.39 in WNW 4.8 mph 9.0 mph 92 % 0.00 in
23:29 38.6 °F 36.2 °F 29.39 in West 4.8 mph 8.1 mph 91 % 0.00 in
23:34 38.5 °F 36.1 °F 29.39 in WSW 4.7 mph 8.1 mph 91 % 0.00 in
23:39 38.5 °F 36.4 °F 29.38 in WNW 6.1 mph 11.5 mph 92 % 0.00 in
23:44 38.4 °F 36.0 °F 29.39 in WNW 2.1 mph 5.8 mph 91 % 0.00 in
23:49 38.4 °F 36.0 °F 29.39 in WNW 4.0 mph 6.9 mph 91 % 0.00 in
23:54 38.4 °F 36.0 °F 29.39 in WNW 4.1 mph 8.1 mph 91 % 0.00 in
23:59 38.4 °F 36.0 °F 29.39 in WNW 4.5 mph 11.5 mph 91 % 0.00 in
Crab Meadow Weather
Compliments of Weather Underground - 3 mb

Script developed by  Jim McMurry - jmcmurry@mwt.net Adapted for the template by  Wim van der Kuil - Leuven-Template.eu

Recycling: A used aluminum can is recycled and back on the grocery shelf as a new can, in as little as 60 days.